User: anonymous   Login
Location: Bukovany
(49.8234°N, 14.6297°E)
Time: 20:06:04
(UTC+00:00)
Language:

Cosmos 371 Rocket - Orbit

View from above orbital plane
View from above orbital plane
View from above satellite
View from above satellite

Ground track
Ground track

The orbit is defined by the following mean orbital elements,

1 04579U          26021.48524762 +.00000000 +00000-0 +21060-3 0 00009
2 04579  74.0000 196.8727 0009665 160.3557 199.7984 14.63517182    06
Epoch (UTC): 21 January 2026 11:38:45
Eccentricity: 0.0009665
inclination: 74.0000°
perigee height: 675 km
apogee height: 689 km
right ascension of ascending node: 196.8727°
argument of perigee: 160.3557°
revolutions per day: 14.63517182
mean anomaly at epoch: 199.7984°

The dashed part of the orbit path shows where the satellite is in the earth's shadow,  

DLR